铱星星座 118星 (IRIDIUM 118)

导读

IRIDIUM 118是美国2017年6月25日发射的铱星系列通信卫星,隶属于全球覆盖的铱星卫星通信系统。该卫星运行在近地轨道,作为系统组网卫星之一,为全球提供无缝隙的语音、数据通信服务,补充完善铱星星座的通信覆盖能力,支撑全球任意地点的卫星通信需求,助力个人、海事等领域的移动通信保障。

基本信息
目录编号:
42807
目录名称:
IRIDIUM 118
国际标识:
2017-039E
轨道中心:
EARTH
卫星名称:
铱星星座 118星
卫星全名:
铱星星座 118星 (IRIDIUM 118)
卫星状态:
在轨 (已飞行3365 天)
发射日期:
2017-06-25 UTC
国别 :
美国 (US)
星等 :
--
轨道信息
数据来源 国际轨道数据
星历时间: 2026-09-10T21:41:47+0800
14小时前
查看轨道信息
半长轴: 7155.807km
偏心率: 0.0002246
轨道倾角: 86.399°
近地点辐角 95.891°
升交点赤经 317.964°
平近点角 264.254°
近地点: 776.062km
远地点: 779.278km
周期: 100.403分钟
每日圈数: 14.34217
详细信息
平衡模式:
三轴稳定
覆盖范围:
全球
运营商:
铱星通信公司
运营商所在国:
美国
制造商(研发单位):
阿莱尼亚宇航公司
制造商所在国:
意大利
使用方式:
暂无
卫星简介
铱星(Iridium)是由共66个运作中的通信卫星组成的卫星通信系统。这个系统原本规划77个通信卫星,所以用原子序数为77的铱元素来命名。铱卫星允许人们使用手持型电子设备进行全球性的语音及数据通讯。该卫星仍在工作。
2D轨道图
3D轨道图
轨道高度分析图
轨道倾角分析图
轨道综合分析图
查看轨道综合分析图
交会数据列表
事件ID 空间交会对象 最接近时刻(TCA) 交会距离 交会风险概率(CRP) 交会风险指数(CRI) 操作
CDM_260911-200603-512804-280725
2026-09-11T
20:06:23+0000
2.510 km
极远距离
1.748145E-6 低风险 0.4
CDM_260911-204604-182404-280726
2026-09-11T
20:46:11+0000
1.770 km
极远距离
1.097839E-6 低风险 0.36
与全量物体交会距离演化趋势
与全量物体交会风险概率演化趋势